TimeEDT,TemperatureF,Dew PointF,Humidity,Sea Level PressureIn,VisibilityMPH,Wind Direction,Wind SpeedMPH,Gust SpeedMPH,PrecipitationIn,Events,Conditions,WindDirDegrees,DateUTC
12:15 AM,58.8,51.8,77,29.82,10.0,SSE,5.8,-,N/A,,Scattered Clouds,160,2013-05-11 04:15:00
12:35 AM,58.6,51.4,77,29.81,10.0,South,5.8,-,N/A,,Scattered Clouds,190,2013-05-11 04:35:00
12:55 AM,58.5,51.3,77,29.81,10.0,SSW,5.8,-,N/A,,Mostly Cloudy,200,2013-05-11 04:55:00
1:15 AM,57.9,51.6,80,29.80,10.0,SSW,4.6,-,N/A,,Overcast,210,2013-05-11 05:15:00
1:35 AM,59.2,51.8,77,29.80,10.0,SSW,5.8,-,N/A,,Scattered Clouds,200,2013-05-11 05:35:00
1:55 AM,59.5,52.0,76,29.78,10.0,South,4.6,-,N/A,,Mostly Cloudy,190,2013-05-11 05:55:00
2:15 AM,59.4,52.0,77,29.78,10.0,South,5.8,-,N/A,,Overcast,190,2013-05-11 06:15:00
2:35 AM,59.9,52.2,76,29.77,10.0,South,5.8,-,N/A,,Overcast,190,2013-05-11 06:35:00
2:55 AM,59.9,52.3,76,29.77,10.0,South,6.9,-,N/A,,Mostly Cloudy,170,2013-05-11 06:55:00
3:15 AM,59.9,52.3,76,29.77,10.0,South,4.6,-,N/A,,Mostly Cloudy,170,2013-05-11 07:15:00
3:35 AM,59.2,52.7,79,29.76,10.0,South,3.5,-,N/A,,Drizzle,180,2013-05-11 07:35:00
3:55 AM,58.3,53.1,83,29.77,10.0,SSW,5.8,-,N/A,,Drizzle,210,2013-05-11 07:55:00
4:15 AM,57.6,53.8,87,29.76,7.0,SSW,5.8,-,N/A,Rain,Light Rain,200,2013-05-11 08:15:00
4:35 AM,57.6,54.1,88,29.75,7.0,SSE,5.8,-,N/A,Rain,Rain,160,2013-05-11 08:35:00
4:55 AM,57.4,54.0,88,29.73,10.0,Calm,Calm,-,N/A,Rain,Light Rain,0,2013-05-11 08:55:00
5:15 AM,56.7,53.8,90,29.74,7.0,SW,3.5,-,N/A,Rain,Rain,220,2013-05-11 09:15:00
5:35 AM,56.5,53.8,91,29.73,7.0,SSW,3.5,-,N/A,Rain,Light Rain,210,2013-05-11 09:35:00
5:55 AM,56.3,53.8,91,29.72,5.0,South,3.5,-,N/A,Rain,Rain,170,2013-05-11 09:55:00
6:35 AM,57.4,54.5,90,29.72,5.0,South,5.8,-,N/A,Rain,Rain,170,2013-05-11 10:35:00
6:55 AM,57.4,54.3,90,29.71,5.0,South,5.8,-,N/A,Rain,Rain,170,2013-05-11 10:55:00
7:15 AM,57.6,54.5,90,29.71,7.0,South,4.6,-,N/A,Rain,Rain,170,2013-05-11 11:15:00
7:35 AM,57.7,54.3,88,29.69,7.0,South,4.6,-,N/A,Rain,Light Rain,180,2013-05-11 11:35:00
7:55 AM,58.1,54.5,88,29.69,7.0,South,6.9,-,N/A,Rain,Rain,180,2013-05-11 11:55:00
8:15 AM,59.0,55.2,87,29.69,10.0,South,6.9,-,N/A,,Light Drizzle,170,2013-05-11 12:15:00
8:35 AM,59.4,55.4,87,29.68,10.0,South,9.2,-,N/A,,Overcast,170,2013-05-11 12:35:00
8:55 AM,59.7,55.8,87,29.68,5.0,South,5.8,-,N/A,,Light Drizzle,170,2013-05-11 12:55:00
9:15 AM,59.2,55.4,87,29.68,7.0,South,5.8,-,N/A,,Light Drizzle,180,2013-05-11 13:15:00
9:35 AM,59.0,55.6,88,29.67,5.0,South,5.8,-,N/A,,Drizzle,170,2013-05-11 13:35:00
9:55 AM,59.7,56.1,88,29.67,10.0,South,4.6,-,N/A,,Overcast,180,2013-05-11 13:55:00
10:15 AM,60.1,56.3,87,29.67,10.0,South,5.8,-,N/A,,Overcast,180,2013-05-11 14:15:00
10:35 AM,61.9,56.7,83,29.67,10.0,South,9.2,-,N/A,,Overcast,190,2013-05-11 14:35:00
10:55 AM,64.4,57.6,78,29.66,10.0,SSW,13.8,18.4,N/A,,Scattered Clouds,200,2013-05-11 14:55:00
11:15 AM,64.0,56.5,76,29.66,10.0,South,13.8,18.4,N/A,,Scattered Clouds,190,2013-05-11 15:15:00
11:35 AM,65.3,56.7,74,29.66,10.0,South,11.5,17.3,N/A,,Mostly Cloudy,190,2013-05-11 15:35:00
11:55 AM,65.8,56.5,72,29.65,10.0,SSW,10.4,19.6,N/A,,Scattered Clouds,200,2013-05-11 15:55:00
12:15 PM,66.4,56.3,70,29.65,10.0,South,11.5,-,N/A,,Scattered Clouds,190,2013-05-11 16:15:00
12:35 PM,66.6,55.8,68,29.64,10.0,South,9.2,16.1,N/A,,Mostly Cloudy,190,2013-05-11 16:35:00
12:55 PM,66.6,54.7,66,29.64,10.0,South,10.4,18.4,N/A,,Overcast,190,2013-05-11 16:55:00
1:35 PM,65.7,54.5,67,29.63,10.0,South,13.8,19.6,N/A,,Overcast,170,2013-05-11 17:35:00
1:55 PM,67.1,55.6,66,29.63,10.0,South,8.1,18.4,N/A,,Mostly Cloudy,170,2013-05-11 17:55:00
2:35 PM,66.6,54.7,66,29.63,10.0,South,12.7,18.4,N/A,,Overcast,190,2013-05-11 18:35:00
2:55 PM,65.3,55.2,70,29.62,7.0,South,12.7,21.9,N/A,Rain,Rain,190,2013-05-11 18:55:00
3:15 PM,65.3,58.1,77,29.62,10.0,SSW,10.4,17.3,N/A,,Scattered Clouds,200,2013-05-11 19:15:00
3:35 PM,67.3,57.2,70,29.62,10.0,South,12.7,23.0,N/A,,Scattered Clouds,170,2013-05-11 19:35:00
3:55 PM,66.4,55.4,68,29.61,10.0,South,11.5,17.3,N/A,,Mostly Cloudy,190,2013-05-11 19:55:00
4:15 PM,67.3,55.8,66,29.60,10.0,SSW,8.1,17.3,N/A,,Mostly Cloudy,200,2013-05-11 20:15:00
4:35 PM,68.0,54.7,62,29.60,10.0,South,9.2,17.3,N/A,,Mostly Cloudy,190,2013-05-11 20:35:00
4:55 PM,67.3,54.5,63,29.60,10.0,South,9.2,17.3,N/A,,Scattered Clouds,180,2013-05-11 20:55:00
5:15 PM,66.9,54.3,64,29.60,10.0,South,8.1,-,N/A,,Mostly Cloudy,180,2013-05-11 21:15:00
5:35 PM,66.2,55.2,68,29.62,10.0,West,11.5,-,N/A,,Mostly Cloudy,260,2013-05-11 21:35:00
5:55 PM,61.3,53.2,75,29.62,10.0,WSW,6.9,-,N/A,,Overcast,250,2013-05-11 21:55:00
6:15 PM,61.0,50.2,68,29.63,10.0,West,11.5,23.0,N/A,,Scattered Clouds,270,2013-05-11 22:15:00
6:35 PM,61.0,49.8,67,29.65,10.0,West,10.4,-,N/A,,Mostly Cloudy,270,2013-05-11 22:35:00
6:55 PM,59.9,48.7,67,29.65,10.0,West,10.4,19.6,N/A,,Mostly Cloudy,270,2013-05-11 22:55:00
7:15 PM,58.3,46.8,66,29.66,10.0,WSW,6.9,19.6,N/A,,Scattered Clouds,250,2013-05-11 23:15:00
7:35 PM,57.6,46.6,67,29.66,10.0,West,11.5,-,N/A,,Scattered Clouds,270,2013-05-11 23:35:00
7:55 PM,56.8,46.8,69,29.68,10.0,West,6.9,-,N/A,,Clear,260,2013-05-11 23:55:00
8:15 PM,55.9,46.9,72,29.68,10.0,West,4.6,-,N/A,,Clear,280,2013-05-12 00:15:00
8:35 PM,54.9,46.8,74,29.69,10.0,Calm,Calm,-,N/A,,Clear,0,2013-05-12 00:35:00
8:55 PM,53.6,45.9,75,29.71,10.0,Calm,Calm,-,N/A,,Scattered Clouds,0,2013-05-12 00:55:00
9:15 PM,50.5,45.3,82,29.72,10.0,Calm,Calm,-,N/A,,Scattered Clouds,0,2013-05-12 01:15:00
9:35 PM,50.2,44.1,79,29.72,10.0,Calm,Calm,-,N/A,,Clear,0,2013-05-12 01:35:00
9:55 PM,51.6,45.9,81,29.72,10.0,NNW,4.6,-,N/A,,Scattered Clouds,330,2013-05-12 01:55:00
10:15 PM,50.9,45.7,82,29.71,10.0,NNE,3.5,-,N/A,,Scattered Clouds,20,2013-05-12 02:15:00
10:35 PM,51.8,45.5,79,29.71,10.0,North,3.5,-,N/A,,Mostly Cloudy,350,2013-05-12 02:35:00
10:55 PM,51.3,45.0,79,29.71,10.0,Calm,Calm,-,N/A,,Mostly Cloudy,0,2013-05-12 02:55:00
11:15 PM,51.1,45.1,80,29.72,10.0,Calm,Calm,-,N/A,,Mostly Cloudy,0,2013-05-12 03:15:00
11:35 PM,50.4,45.7,84,29.71,10.0,Calm,Calm,-,N/A,,Overcast,0,2013-05-12 03:35:00
11:55 PM,50.4,45.3,83,29.71,10.0,Calm,Calm,-,N/A,,Overcast,0,2013-05-12 03:55:00